Home   Weather   Horten   Past weeks
Flag for Norway

Past Weather in Horten, Norway — Yesterday and Last 2 Weeks

Now
59 °F

Passing clouds.


Feels Like: 55 °F
Forecast: 72 / 62 °F
Wind: 20 mph from South

Location: Oseberg

Current Time: Jul 23, 2019 at 7:59:02 pm

Latest Report: Jul 23, 2019 at 7:20 pm


Visibility: 5 mi

Pressure: 30.01 "Hg

Humidity: 94%

Dew Point: 57 °F

Location of HortenLocation

Past Weather in Horten — Graph

°F

Horten Temperature Yesterday

Maximum temperature yesterday: 57 °F (at 12:50 am)
Minimum temperature yesterday: 55 °F (at 2:20 am)
Average temperature yesterday: 57 °F

High & Low Weather Summary for the Past Weeks

 TemperatureHumidityPressure
High63 °F (Jul 23, 4:20 pm)100% (Jul 9, 10:50 pm)30.15 "Hg (Jul 9, 10:50 pm)
Low50 °F (Jul 8, 6:20 pm)68% (Jul 10, 1:50 pm)29.59 "Hg (Jul 18, 2:50 pm)
Average55 °F89%29.91 "Hg
* Reported Jul 8 6:20 pm — Jul 23 6:50 pm, Horten. Weather by CustomWeather, © 2019

Note: Actual official high and low records may vary slightly from our data, if they occured in-between our weather recording intervals... More about our weather records

Advertising

Horten Weather History for the Previous 24 Hours

Scroll right to see more
 ConditionsComfort  
Time TempWeatherWind HumidityBarometerVisibility
6:50 pm
Tue, Jul 23
59 °FPassing clouds.21 mph94%30.01 "Hg6 mi
6:20 pm61 °FPassing clouds.21 mph88%30.01 "Hg6 mi
5:50 pm59 °FPassing clouds.21 mph94%30.01 "Hg6 mi
5:13 pm61 °FPassing clouds.20 mph88%30.01 "Hg6 mi
4:50 pm61 °FPassing clouds.18 mph88%30.01 "HgN/A
4:20 pm63 °FScattered clouds.15 mph83%30.01 "Hg6 mi
3:50 pm61 °FScattered clouds.15 mph88%30.01 "Hg6 mi
3:20 pm61 °FPartly sunny.13 mph88%30.01 "Hg6 mi
2:50 pm61 °FPartly sunny.14 mph88%30.01 "Hg6 mi
2:20 pm61 °FOvercast.17 mph88%29.98 "Hg6 mi
1:50 pm59 °FPartly sunny.20 mph94%29.98 "Hg6 mi
1:20 pm59 °FPartly sunny.21 mph94%29.98 "Hg6 mi
12:50 pm59 °FPartly sunny.22 mph94%29.98 "HgN/A
12:20 pm59 °FBroken clouds.22 mph94%29.98 "HgN/A
11:50 am59 °FScattered clouds.21 mph94%29.95 "Hg6 mi
11:20 am59 °FBroken clouds.23 mph94%29.95 "HgN/A
10:50 am59 °FPartly sunny.22 mph94%29.95 "Hg6 mi
10:20 am59 °FPartly sunny.25 mph100%29.95 "Hg5 mi
9:50 am59 °FBroken clouds.26 mph100%29.92 "Hg4 mi
9:20 am57 °FFog.25 mph100%29.92 "Hg1 mi
8:50 am57 °FLight rain. Fog.24 mph100%29.92 "Hg0 mi
7:48 am57 °FLight rain. Fog.25 mph100%29.92 "Hg1 mi
7:20 am57 °FLight rain. Fog.24 mph100%29.92 "Hg1 mi
6:50 am57 °FLight rain. Fog.15 mph100%29.92 "Hg2 mi
6:20 am59 °FScattered clouds.10 mph94%29.92 "HgN/A
5:50 am57 °FScattered clouds.15 mph100%29.92 "HgN/A
5:20 am57 °FPartly sunny.13 mph100%29.92 "Hg6 mi
4:50 am55 °FBroken clouds.13 mph100%29.92 "Hg6 mi
3:50 am55 °FFog.9 mph100%29.92 "Hg0 mi
2:50 am55 °FFog.12 mph100%29.92 "Hg0 mi
1:50 am55 °FCool.N/A100%29.92 "HgN/A
12:50 am55 °FFog.13 mph100%29.89 "Hg0 mi
12:20 am55 °FPassing clouds.12 mph100%29.89 "Hg6 mi
11:50 pm
Mon, Jul 22
55 °FFog.13 mph100%29.86 "Hg0 mi
10:50 pm55 °FFog.12 mph100%29.83 "Hg0 mi
9:50 pm55 °FFog.9 mph100%29.80 "Hg0 mi
8:50 pm55 °FFog.12 mph100%29.77 "Hg0 mi
7:50 pm57 °FFog.17 mph100%29.74 "Hg0 mi
7:20 pm57 °FFog.14 mph100%29.74 "Hg0 mi
Weather by CustomWeather, © 2019

See weather overview